Location: Peebles
(55.6412°N, 3.1714°W)
Time: 14:57:32
(UTC+01:00)

FENGYUN 1C DEB - Visible Passes

Search period start: 29 September 2023 00:00
Search period end: 09 October 2023 00:00
Orbit: 707 x 862 km, 98.5° (Epoch: 07 November)

Date Brightness Start Highest point End Pass type
(mag) Time Alt. Az. Time Alt. Az. Time Alt. Az.
29 Sep ? 20:04:30 10° SSE 20:09:49 77° ENE 20:15:13 10° NNW visible
29 Sep ? 21:45:10 10° SW 21:49:20 23° W 21:53:34 10° NW visible
30 Sep ? 19:27:31 10° SE 19:32:32 44° ENE 19:37:38 10° N visible
30 Sep ? 21:06:32 10° SSW 21:11:33 41° W 21:16:38 10° NNW visible
01 Oct ? 20:28:37 10° S 20:33:56 75° WSW 20:39:21 10° NNW visible
01 Oct ? 22:10:40 10° WSW 22:13:49 16° W 22:17:00 10° NW visible
02 Oct ? 19:51:15 10° SSE 19:56:30 63° ENE 20:01:50 10° NNW visible
02 Oct ? 21:31:17 10° SSW 21:35:51 28° W 21:40:28 10° NNW visible
03 Oct ? 19:14:23 10° SE 19:19:15 37° ENE 19:24:09 10° N visible
03 Oct ? 20:52:52 10° S 20:58:04 51° W 21:03:20 10° NNW visible
03 Oct ? 22:37:46 10° W 22:38:18 10° WNW 22:38:50 10° WNW visible
04 Oct ? 20:15:07 10° SSE 20:20:29 90° ENE 20:25:54 10° NNW visible
04 Oct ? 21:56:20 10° SW 22:00:09 20° W 22:03:59 10° NW visible
05 Oct ? 19:37:53 10° SE 19:43:04 52° ENE 19:48:16 10° N visible
05 Oct ? 21:17:20 10° SSW 21:22:12 35° W 21:27:07 10° NNW visible
06 Oct ? 20:39:08 10° S 20:44:27 63° WSW 20:49:48 10° NNW visible
06 Oct ? 22:21:59 10° WSW 22:24:27 13° W 22:26:56 10° NW visible
07 Oct ? 20:01:31 10° SSE 20:06:52 74° ENE 20:12:14 10° NNW visible
07 Oct ? 21:42:02 10° SW 21:46:20 24° W 21:50:39 10° NW visible
08 Oct ? 19:24:26 10° SE 19:29:28 42° ENE 19:34:29 10° N visible
08 Oct ? 21:03:19 10° S 21:08:25 43° W 21:13:31 10° NNW visible
